Starlink 1234

operational
NORAD ID: 45190 Int'l Des: 2020-012 Owner: SPXS Country: US Constellation: starlink
LEOCIRCULARSTARLINK_TYPE

About Starlink 1234

Description loading...

Live Position

Loading 3D Globe...

Upcoming Passes

Altitude History

Altitude vs Time

uPlot chart will show altitude changes over time

Two-Line Element Set

1 45190U 20012N 25304.47859985 .00069168 00000-0 19385-2 0 9991
2 45190 53.0526 223.6782 0002558 102.1244 258.0045 15.35990228315867
Epoch: Oct 31, 2025 • Age: 8 hours

Current Status

Altitude 459.2 km
Velocity 7.64 km/s
Sub-Earth Point -0.38°S, 107.87°W
Launch Date Feb 17, 2020
Age 5.7 years
Type internet

Technical Details

Classification Payload
Mass 260.00 kg
Dry Mass 248.00 kg
Total Mass 260.00 kg
Length 0.20 m
Diameter 2.80 m
Span 9.00 m
Shape Box + pan
Manufacturer SPXS
Bus Type Starlink
Phase Status In Orbit
Owner/State SPXS/US

Large Constellations

Loading constellations...